Beckley, WV

1:21 AM EDT on March 27, 2017 (GMT -0400)
Raleigh County Memorial

Weather History for KBKW - August, 2014

Change the Weather History Date:

Thursday, August 14, 2014

  Actual Average Record
Temperature  
Mean Temperature 64 °F 70 °F  
Max Temperature 72 °F 80 °F 99 °F (1926)
Min Temperature 56 °F 61 °F 43 °F (1964)
Degree Days  
Heating Degree Days 1 0  
Month to date heating degree days 6 0  
Since 1 June heating degree days 40 47  
Since 1 July heating degree days 28 8  
Cooling Degree Days 0 5  
Month to date cooling degree days 36 83  
Year to date cooling degree days 433 416  
Since 1 June cooling degree days 358 375  
Growing Degree Days 14 (Base 50)    
Moisture  
Dew Point 57 °F    
Average Humidity 81    
Maximum Humidity 100    
Minimum Humidity 61    
Precipitation  
Precipitation 0.05 in 0.11 in 2.73 in (1940)
Month to date precipitation 1.00 1.83  
Year to date precipitation 21.39 28.02  
Snow  
Snow 0.00 in - - ()
Month to date snowfall 0.0  
Since 1 September snowfall 76.3  
Snow Depth 0.00 in    
Sea Level Pressure  
Sea Level Pressure 30.05 in    
Wind  
Wind Speed 6 mph (WSW)    
Max Wind Speed 17 mph    
Max Gust Speed 22 mph    
Visibility 6 miles    
Events Rain    
T = Trace of Precipitation, MM = Missing Value Source: NWS Daily Summary

Daily Weather History Graph

Daily Weather History Graph

Search for Another Location

Airport or City:

Trip Planner

Search our weather history database for the weather conditions in past years. The results will help you decide how hot, cold, wet, or windy it might be!

Date:

Astronomy

Aug. 14, 2014 Rise Set
Actual Time 6:39 AM EDT 8:18 PM EDT
Civil Twilight 6:11 AM EDT 8:46 PM EDT
Nautical Twilight 5:37 AM EDT 9:20 PM EDT
Astronomical Twilight 5:01 AM EDT 9:56 PM EDT
Moon 10:47 PM EDT (8/14) 11:08 AM EDT (8/14)
Length of Visible Light 14h 35m
Length of Day
13h 39m
Waning Gibbous, 79% of the Moon is Illuminated
Aug 14
Waning Gibbous
Aug 17
Last Quarter
Aug 25
New
Sep 2
First Quarter
Sep 8
Full

Hourly Weather History & Observations

Time (EDT) Temp. Dew Point Humidity Pressure Visibility Wind Dir Wind Speed Gust Speed Precip Events Conditions
12:51 AM 55.9 °F 55.0 °F 97% 30.05 in 4.0 mi SW 4.6 mph - N/A   Clear
1:18 AM 57.0 °F 55.0 °F 93% 30.09 in 4.0 mi SW 4.6 mph - N/A   Partly Cloudy
1:48 AM 57.2 °F 55.4 °F 94% 30.08 in 3.0 mi SW 4.6 mph - N/A   Mostly Cloudy
1:51 AM 57.0 °F 55.0 °F 93% 30.04 in 3.0 mi SW 4.6 mph - N/A   Mostly Cloudy
2:03 AM 57.0 °F 55.0 °F 93% 30.08 in 2.0 mi SW 5.8 mph - N/A   Overcast
2:11 AM 57.0 °F 55.9 °F 96% 30.08 in 0.8 mi SW 5.8 mph - N/A   Overcast
2:21 AM 57.0 °F 55.9 °F 96% 30.08 in 2.0 mi SW 5.8 mph - N/A   Overcast
2:30 AM 57.0 °F 55.9 °F 96% 30.08 in 3.0 mi SW 4.6 mph - N/A   Overcast
2:51 AM 57.0 °F 55.0 °F 93% 30.02 in 3.0 mi SW 5.8 mph - N/A   Overcast
3:51 AM 57.0 °F 55.9 °F 96% 30.01 in 2.5 mi SW 8.1 mph - N/A   Overcast
4:00 AM 57.0 °F 55.9 °F 96% 30.07 in 1.0 mi SW 8.1 mph - N/A   Overcast
4:21 AM 57.0 °F 55.9 °F 96% 30.07 in 1.5 mi WSW 6.9 mph - N/A   Overcast
4:35 AM 57.0 °F 55.9 °F 96% 30.07 in 2.5 mi SW 6.9 mph - N/A   Overcast
4:51 AM 57.9 °F 55.9 °F 93% 30.01 in 4.0 mi SW 6.9 mph - N/A   Overcast
4:59 AM 57.9 °F 55.9 °F 93% 30.06 in 4.0 mi SW 6.9 mph - N/A   Overcast
5:51 AM 57.2 °F 55.4 °F 94% 30.07 in 5.0 mi SW 3.5 mph - N/A   Overcast
6:51 AM 57.0 °F 55.0 °F 93% 30.04 in 3.0 mi SW 5.8 mph - N/A   Overcast
7:51 AM 57.9 °F 55.9 °F 93% 30.05 in 5.0 mi SW 6.9 mph - N/A   Mostly Cloudy
8:32 AM 59.0 °F 57.0 °F 93% 30.10 in 6.0 mi SW 6.9 mph - N/A   Scattered Clouds
8:51 AM 60.1 °F 57.0 °F 90% 30.06 in 8.0 mi SW 8.1 mph - N/A   Partly Cloudy
9:51 AM 64.0 °F 57.0 °F 78% 30.05 in 10.0 mi West 5.8 mph - N/A   Mostly Cloudy
10:25 AM 63.0 °F 55.0 °F 75% 30.11 in 10.0 mi WNW 11.5 mph - N/A   Overcast
10:51 AM 62.6 °F 55.4 °F 77% 30.12 in 10.0 mi WNW 8.1 mph - N/A   Overcast
11:51 AM 66.0 °F 57.0 °F 73% 30.05 in 10.0 mi WSW 6.9 mph - N/A   Overcast
12:51 PM 66.9 °F 55.9 °F 68% 30.04 in 10.0 mi West 10.4 mph - N/A   Overcast
1:51 PM 68.0 °F 57.0 °F 68% 30.02 in 10.0 mi WNW 8.1 mph 18.4 mph N/A   Overcast
2:06 PM 66.9 °F 55.9 °F 68% 30.08 in 10.0 mi WNW 12.7 mph - N/A   Overcast
2:39 PM 68.0 °F 57.0 °F 68% 30.07 in 10.0 mi WNW 6.9 mph - N/A   Overcast
2:51 PM 68.0 °F 57.9 °F 70% 30.01 in 10.0 mi West 10.4 mph - N/A   Overcast
3:16 PM 69.1 °F 57.0 °F 65% 30.06 in 10.0 mi West 10.4 mph - N/A   Overcast
3:51 PM 68.0 °F 57.9 °F 70% 29.99 in 10.0 mi West 4.6 mph - N/A   Overcast
4:51 PM 69.8 °F 55.4 °F 60% 30.04 in 10.0 mi West 9.2 mph 17.3 mph N/A   Overcast
5:51 PM 69.1 °F 57.0 °F 65% 29.97 in 10.0 mi NW 8.1 mph - N/A   Mostly Cloudy
6:51 PM 68.0 °F 57.9 °F 70% 29.97 in 10.0 mi NNW 5.8 mph - N/A   Mostly Cloudy
7:24 PM 66.0 °F 59.0 °F 78% 30.04 in 10.0 mi NW 3.5 mph - 0.00 in Rain Light Rain
7:32 PM 66.0 °F 59.0 °F 78% 30.04 in 6.0 mi West 3.5 mph - 0.00 in Rain Light Rain
7:37 PM 64.9 °F 59.0 °F 81% 30.05 in 2.0 mi WSW 8.1 mph - 0.01 in Rain Heavy Rain
7:51 PM 63.0 °F 60.1 °F 90% 30.00 in 4.0 mi WSW 6.9 mph - 0.04 in Rain Light Rain
8:00 PM 63.0 °F 61.0 °F 93% 30.05 in 5.0 mi West 5.8 mph - 0.00 in Rain Light Rain
8:51 PM 63.0 °F 60.1 °F 90% 30.00 in 9.0 mi West 4.6 mph - 0.01 in   Overcast
9:51 PM 62.1 °F 60.1 °F 93% 30.01 in 6.0 mi SSW 3.5 mph - N/A   Mostly Cloudy
10:51 PM 60.8 °F 59.0 °F 94% 30.08 in 7.0 mi South 3.5 mph - N/A   Scattered Clouds
11:30 PM 59.0 °F 57.0 °F 93% 30.08 in 1.8 mi South 3.5 mph - N/A   Clear
11:38 PM 59.0 °F 57.0 °F 93% 30.08 in 3.0 mi South 4.6 mph - N/A   Clear
11:51 PM 57.9 °F 57.0 °F 97% 30.03 in 3.0 mi South 4.6 mph - N/A   Clear
11:55 PM 57.9 °F 57.0 °F 97% 30.08 in 1.8 mi South 4.6 mph - N/A   Partly Cloudy